STARLINK-4680 (53749 NORAD) Tracking and Keplerian Element Data

This shows tracking and keplerian element data for the satellite.

Feedback or suggestion? Click here.




ElementValue
Catalog53749
NameSTARLINK-4680
Epoch Orbit1199
Epoch Day325.33334491
Epoch Year2022
RAAN270.841
Inclination53.216
Eccentricity0.0001761
Argument of Perigee40.7825
Mean Anonmoly318.0587
Mean Motion15.08826368
Decay Rate0.00025755
L11 53749U 22107BB 22325.33334491 .00025755 00000+0 16310-2 0 9990
L22 53749 53.2160 270.8410 0001761 40.7825 318.0587 15.08826368 11999



Live tracking and technical data element details for STARLINK-4680 (NORAD 53749). STARLINK-4680 can be tracked NOW for your location showing map with azimuth and elevation plus other details from your city location.







IsCatalogInMostPopularTable: catalog: 53749, numindb: -1

Insert: records affected: 1


GetName: 53749 STARLINK-4680

Hit Count: inserted at: Thu, 08 Dec 2022 09:55:06 GMT